| time (UTC) | temp C | wind direction | speed KPH | gust KPH | rain 1hr cm | rain 24hr cm | rain mn cm | humidity % | barometer mb |
| 20260504223006 | 27 | 155 | 6.4 | 8.0 | 0.00 | 0.00 | 0.00 | 93 | 1009.0 |
| 20260504221505 | 27 | 165 | 6.4 | 8.0 | 0.00 | 0.00 | 0.00 | 93 | 1009.0 |
| 20260504220005 | 27 | 165 | 6.4 | 8.0 | 0.00 | 0.00 | 0.00 | 93 | 1009.0 |
| 20260504214505 | 27 | 165 | 6.4 | 8.0 | 0.00 | 0.00 | 0.00 | 93 | 1009.0 |
| 20260504213005 | 27 | 165 | 6.4 | 8.0 | 0.00 | 0.00 | 0.00 | 93 | 1009.0 |
| 20260504211505 | 28 | 158 | 6.4 | 8.0 | 0.00 | 0.00 | 0.00 | 93 | 1009.0 |
| 20260504210006 | 27 | 158 | 6.4 | 8.0 | 0.00 | 0.00 | 0.00 | 93 | 1009.0 |
| 20260504204507 | 27 | 158 | 6.4 | 8.0 | 0.00 | 0.00 | 0.00 | 93 | 1009.0 |
| 20260504203005 | 27 | 158 | 6.4 | 8.0 | 0.00 | 0.00 | 0.00 | 93 | 1009.0 |
| 20260504201506 | 28 | 164 | 6.4 | 8.0 | 0.00 | 0.00 | 0.00 | 93 | 1009.0 |
| 20260504200008 | 28 | 164 | 6.4 | 8.0 | 0.00 | 0.00 | 0.00 | 93 | 1009.0 |
| 20260504194506 | 28 | 164 | 6.4 | 8.0 | 0.00 | 0.00 | 0.00 | 93 | 1009.0 |
| 20260504193006 | 28 | 164 | 6.4 | 8.0 | 0.00 | 0.00 | 0.00 | 93 | 1009.0 |
| 20260504191505 | 28 | 171 | 4.8 | 4.8 | 0.00 | 0.00 | 0.00 | 94 | 1009.0 |
| 20260504190008 | 28 | 171 | 4.8 | 4.8 | 0.00 | 0.00 | 0.00 | 93 | 1009.0 |
| 20260504184505 | 28 | 171 | 4.8 | 4.8 | 0.00 | 0.00 | 0.00 | 93 | 1009.0 |
| 20260504183006 | 28 | 171 | 4.8 | 4.8 | 0.00 | 0.00 | 0.00 | 93 | 1009.0 |
| 20260504181506 | 27 | 193 | 4.8 | 4.8 | 0.00 | 0.00 | 0.00 | 94 | 1010.0 |
| 20260504180006 | 27 | 193 | 4.8 | 4.8 | 0.00 | 0.00 | 0.00 | 94 | 1010.0 |
| 20260504174505 | 27 | 171 | 6.4 | 6.4 | 0.00 | 0.00 | 0.00 | 95 | 1010.0 |
| 20260504173006 | 27 | 171 | 6.4 | 6.4 | 0.00 | 0.00 | 0.00 | 93 | 1010.0 |
| 20260504171505 | 28 | 184 | 6.4 | 4.8 | 0.00 | 0.00 | 0.00 | 91 | 1010.0 |
| 20260504130105 | 26 | 180 | 12.9 | 0.0 | 0.00 | 0.00 | 0.00 | 83 | 1011.0 |
| 20260504120104 | 26 | 180 | 12.9 | 0.0 | 0.00 | 0.00 | 0.00 | 83 | 1010.0 |
| 20260504110108 | 26 | 180 | 12.9 | 0.0 | 0.00 | 0.00 | 0.00 | 83 | 1009.0 |
| 20260504100108 | 26 | 220 | 4.8 | 0.0 | 0.00 | 0.00 | 0.00 | 83 | 1008.0 |
| 20260504090106 | 31 | 330 | 17.7 | 0.0 | 0.00 | 0.00 | 0.00 | 74 | 1008.0 |
| 20260504081602 | 31 | 60 | 20.9 | 0.0 | 0.00 | 0.00 | 0.00 | 71 | 1008.0 |
| 20260504080118 | 31 | 60 | 20.9 | 0.0 | 0.00 | 0.00 | 0.00 | 71 | 1008.0 |
| 20260504070112 | 31 | 60 | 20.9 | 0.0 | 0.00 | 0.00 | 0.00 | 71 | 1008.0 |
| 20260504050107 | 31 | 120 | 16.1 | 0.0 | 0.00 | 0.00 | 0.00 | 71 | 1009.0 |
| 20260504044558 | 31 | 120 | 16.1 | 0.0 | 0.00 | 0.00 | 0.00 | 71 | 1009.0 |
| 20260504043100 | 31 | 120 | 16.1 | 0.0 | 0.00 | 0.00 | 0.00 | 72 | 1009.0 |
| 20260504041558 | 31 | 120 | 16.1 | 0.0 | 0.00 | 0.00 | 0.00 | 71 | 1010.0 |
| 20260504040105 | 31 | 120 | 16.1 | 0.0 | 0.00 | 0.00 | 0.00 | 72 | 1010.0 |
| 20260504034558 | 31 | 120 | 16.1 | 0.0 | 0.00 | 0.00 | 0.00 | 73 | 1010.0 |
| 20260504033059 | 30 | 120 | 16.1 | 0.0 | 0.00 | 0.00 | 0.00 | 75 | 1010.0 |
| 20260504031559 | 30 | 120 | 16.1 | 0.0 | 0.00 | 0.00 | 0.00 | 75 | 1011.0 |
| 20260504024558 | 30 | 120 | 16.1 | 0.0 | 0.00 | 0.00 | 0.00 | 78 | 1011.0 |
| 20260504023100 | 29 | 110 | 12.9 | 0.0 | 0.00 | 0.00 | 0.00 | 81 | 1011.0 |
| 20260504021558 | 29 | 110 | 12.9 | 0.0 | 0.00 | 0.00 | 0.00 | 80 | 1011.0 |
| 20260504014558 | 29 | 90 | 12.9 | 0.0 | 0.00 | 0.00 | 0.00 | 83 | 1011.0 |
| 20260504013059 | 29 | 100 | 11.3 | 0.0 | 0.00 | 0.00 | 0.00 | 85 | 1011.0 |
| 20260504011600 | 29 | 115 | 6.4 | 9.7 | 0.00 | 0.00 | 0.00 | 85 | 1011.0 |
| 20260504010115 | 28 | 115 | 6.4 | 9.7 | 0.00 | 0.00 | 0.00 | 84 | 1011.0 |
| 20260504004601 | 27 | 115 | 6.4 | 9.7 | 0.00 | 0.00 | 0.00 | 85 | 1011.0 |
| 20260504003107 | 27 | 115 | 6.4 | 9.7 | 0.00 | 0.00 | 0.00 | 85 | 1011.0 |
| 20260504001600 | 27 | 137 | 6.4 | 9.7 | 0.00 | 0.00 | 0.00 | 90 | 1010.0 |
| 20260504000109 | 27 | 137 | 6.4 | 9.7 | 0.00 | 0.00 | 0.00 | 90 | 1010.0 |
| 20260503234601 | 27 | 130 | 6.4 | 11.3 | 0.00 | 0.00 | 0.00 | 91 | 1010.0 |
| 20260503233105 | 27 | 130 | 6.4 | 11.3 | 0.00 | 0.00 | 0.00 | 91 | 1010.0 |
| 20260503231600 | 27 | 146 | 6.4 | 9.7 | 0.00 | 0.00 | 0.00 | 93 | 1010.0 |
| 20260503224559 | 27 | 146 | 6.4 | 9.7 | 0.00 | 0.00 | 0.00 | 93 | 1010.0 |